GW3209 Weather Reports


time (UTC)temp
F
wind
direction
speed
knots
gust
knots
rain 1hr
in
rain 24hr
in
rain mn
in
humidity
%
barometer
mb
20260508110016 42 134 0.0 0.0 0.00 0.30 0.00 96 1016.7
20260508104521 42 134 0.0 0.0 0.00 0.30 0.00 96 1016.4
20260508103031 43 134 0.0 0.0 0.00 0.30 0.00 96 1016.3
20260508101537 43 134 0.0 0.0 0.00 0.30 0.00 96 1016.2
20260508100029 43 134 0.0 0.0 0.00 0.30 0.00 96 1016.0
20260508094518 44 134 0.0 0.0 0.00 0.30 0.00 96 1015.9
20260508093005 44 134 0.0 0.0 0.00 0.30 0.00 96 1015.7
20260508091504 44 134 0.0 0.0 0.00 0.30 0.00 96 1015.6
20260508090008 44 134 0.0 0.0 0.00 0.30 0.00 96 1015.6
20260508084514 45 134 0.0 0.0 0.00 0.30 0.00 96 1015.6
20260508083016 45 134 0.0 0.0 0.00 0.30 0.00 96 1015.4
20260508081503 46 134 0.0 0.0 0.00 0.30 0.00 96 1015.1
20260508080008 46 134 0.0 0.0 0.00 0.30 0.00 96 1015.0
20260508074510 46 134 0.0 0.0 0.00 0.30 0.00 96 1015.0
20260508073026 46 134 0.0 0.0 0.00 0.30 0.00 96 1014.9
20260508071527 46 134 0.0 0.0 0.00 0.30 0.00 96 1014.7
20260508070003 47 134 0.0 0.0 0.00 0.30 0.00 96 1014.7
20260508064511 47 134 0.0 0.0 0.00 0.30 0.00 96 1014.5
20260508063020 47 134 0.0 0.0 0.00 0.30 0.00 96 1014.5
20260508061520 48 134 0.0 0.0 0.00 0.30 0.00 96 1014.6
20260508060024 48 134 0.0 0.0 0.00 0.30 0.00 96 1014.5
20260508054525 48 134 0.0 0.0 0.00 0.31 0.00 96 1014.5
20260508053019 49 134 0.0 0.0 0.00 0.31 0.00 96 1014.5
20260508051516 49 134 0.0 0.0 0.00 0.31 0.00 96 1014.3
20260508050025 49 134 0.0 0.0 0.00 0.32 0.00 96 1014.4
20260508044524 49 134 0.0 0.0 0.00 0.33 0.00 95 1014.1
20260508043023 50 134 0.0 0.0 0.00 0.33 0.00 96 1014.1
20260508041511 50 134 0.0 0.0 0.00 0.33 0.00 96 1014.0
20260508040023 50 134 0.0 0.0 0.00 0.33 0.00 95 1013.8
20260508034528 51 134 0.0 0.0 0.00 0.33 0.33 96 1013.8
20260508033025 51 134 0.0 0.0 0.00 0.34 0.33 95 1013.7
20260508031531 52 134 0.0 0.0 0.00 0.35 0.33 95 1013.9
20260508030016 52 134 0.0 0.0 0.00 0.37 0.33 95 1013.5
20260508024518 53 134 0.0 0.9 0.00 0.37 0.33 96 1013.6
20260508023028 53 134 0.0 2.6 0.00 0.39 0.33 96 1013.4
20260508021525 53 48 0.9 2.6 0.00 0.39 0.33 95 1013.2
20260508020027 54 40 0.0 0.0 0.00 0.41 0.33 94 1013.0
20260508014532 54 40 0.0 1.7 0.00 0.41 0.33 95 1012.8
20260508013020 55 40 0.0 0.9 0.00 0.41 0.33 94 1012.4
20260508011529 55 40 0.0 0.9 0.00 0.42 0.33 94 1012.0
20260508010030 56 40 0.0 0.9 0.00 0.43 0.33 93 1011.7
20260508004529 56 40 0.0 0.9 0.00 0.44 0.33 93 1011.5
20260508003010 57 40 0.0 1.7 0.00 0.44 0.33 93 1011.5
20260508001503 57 40 0.0 1.7 0.00 0.44 0.33 92 1011.4
20260508000006 58 40 0.0 2.6 0.00 0.44 0.33 92 1011.4
20260507234509 58 45 0.0 0.9 0.00 0.44 0.33 93 1011.4
20260507233017 58 45 0.0 2.6 0.00 0.44 0.33 92 1011.3
20260507231504 58 41 0.0 2.6 0.00 0.44 0.33 91 1011.0
20260507230004 58 345 0.0 2.6 0.00 0.44 0.33 91 1010.7
20260507224512 58 70 0.9 3.5 0.00 0.44 0.33 91 1010.5
20260507223012 58 96 1.7 7.0 0.00 0.44 0.33 91 1010.2
20260507221516 58 348 1.7 7.8 0.00 0.44 0.33 91 1009.8
20260507220004 58 49 1.7 7.8 0.00 0.44 0.33 92 1009.7
20260507214504 58 87 1.7 5.2 0.00 0.44 0.33 93 1010.0
20260507213011 58 346 3.5 7.0 0.00 0.44 0.33 93 1009.5
20260507211514 58 60 3.5 8.7 0.00 0.44 0.33 93 1009.7
20260507210020 58 74 0.9 6.1 0.01 0.44 0.33 93 1009.1
20260507204503 59 67 2.6 8.7 0.01 0.44 0.33 93 1009.0
20260507203013 59 49 2.6 8.7 0.05 0.44 0.33 94 1009.5
20260507201512 59 109 1.7 8.7 0.07 0.44 0.33 94 1009.4
20260507200018 59 27 1.7 12.2 0.06 0.43 0.32 94 1008.9
20260507194524 60 336 5.2 14.8 0.06 0.43 0.32 92 1009.1
20260507193005 62 63 5.2 14.8 0.02 0.39 0.28 88 1009.0
20260507191510 64 346 3.5 7.8 0.00 0.37 0.26 85 1008.4
20260507190014 66 338 2.6 9.6 0.00 0.37 0.26 85 1007.9
20260507184521 67 24 2.6 9.6 0.00 0.37 0.26 85 1008.3
20260507183024 68 61 1.7 7.8 0.00 0.37 0.26 86 1008.6
20260507181505 71 90 3.5 11.3 0.00 0.37 0.26 81 1008.6
20260507180012 70 67 0.9 3.5 0.00 0.37 0.26 83 1008.6
20260507174516 70 181 2.6 5.2 0.00 0.37 0.26 84 1008.7
20260507173022 69 178 0.9 6.1 0.00 0.37 0.26 85 1008.7
20260507171525 69 88 0.0 4.3 0.00 0.37 0.26 86 1008.9
20260507170010 68 265 0.0 0.0 0.00 0.37 0.26 91 1009.1
20260507164511 67 266 0.0 3.5 0.00 0.37 0.26 89 1009.3
20260507163020 67 298 0.9 2.6 0.00 0.37 0.26 92 1009.4
20260507161521 66 355 0.0 3.5 0.00 0.37 0.26 94 1009.0
20260507160024 66 336 0.0 1.7 0.00 0.37 0.26 97 1009.0
20260507154512 65 197 0.0 2.6 0.00 0.37 0.26 97 1009.3
20260507153013 64 227 0.0 1.7 0.00 0.37 0.26 97 1009.8
20260507151503 64 227 0.0 4.3 0.00 0.37 0.26 97 1009.8
20260507150007 64 200 1.7 3.5 0.01 0.37 0.26 97 1010.1
20260507144507 64 210 0.9 3.5 0.01 0.37 0.26 97 1010.5
20260507143009 63 194 0.9 3.5 0.01 0.37 0.26 97 1009.9
20260507141519 63 232 0.9 2.6 0.02 0.37 0.26 98 1009.7
20260507140004 63 238 0.0 1.7 0.04 0.36 0.25 97 1009.6
20260507134506 63 238 0.9 3.5 0.08 0.36 0.25 97 1009.9
20260507133010 63 141 0.0 1.7 0.14 0.36 0.25 98 1009.7
20260507131516 62 141 0.0 1.7 0.18 0.35 0.24 97 1009.3
20260507130019 62 248 0.9 2.6 0.16 0.32 0.21 97 1009.2
20260507124511 62 248 0.0 2.6 0.13 0.28 0.17 97 1010.6
20260507123006 62 258 0.0 1.7 0.08 0.22 0.11 97 1011.1
20260507121512 62 248 0.0 0.0 0.03 0.17 0.06 97 1011.4
20260507120018 62 238 0.0 0.0 0.02 0.16 0.05 97 1010.7
20260507114522 62 247 0.0 0.0 0.01 0.15 0.04 97 1010.5
20260507113005 62 325 0.0 0.0 0.00 0.14 0.03 97 1010.8
20260507111510 62 325 0.0 0.0 0.00 0.14 0.03 97 1010.4